TOP > 外国特許検索

外国特許検索

Display results per page Option
Patent state
Country

Clear

Hits 4661 results

No. Application number
Gazette No
Country
Title
Release Date
Update Date
Information Provider
3401 2009JP001090 WO 2009/113303 世界知的所有権機関(WIPO) METHOD FOR DETECTION OF METHYLCYTOSINE USING PHOTORESPONSIVE PROBE 2011/12/27 2011/12/28 北陸先端科学技術大学院大学
3402 2009JP001391 WO 2009/119109 世界知的所有権機関(WIPO) METHOD OF PRODUCING FERMENTED TEA DRINK RICH IN THEAFLAVINS 2011/12/27 2011/12/28 静岡県立大学
3403 2009JP001395 WO 2009/119113 世界知的所有権機関(WIPO) FERMENTED TEA DRINK CONTAINING METHYLATED CATECHIN 2011/12/27 2011/12/28 静岡県立大学
3404 2008JP068124 WO 2009/044903 世界知的所有権機関(WIPO) METHOD OF PREPARING PROTEIN SAMPLE 2011/12/27 2011/12/28 慶應義塾大学
3405 2009JP070323 WO 2010/064686 世界知的所有権機関(WIPO) DIELECTRIC COMPOUND AND MANUFACTURING METHOD THEREOF 2011/12/27 2011/12/28 岡山大学
3406 2010JP005611 WO 2011/048745 世界知的所有権機関(WIPO) MOUTHPIECE 2011/12/27 2011/12/28 岡山大学
3407 2010JP000164 WO 2010/087114 世界知的所有権機関(WIPO) SCANNING PROBE MICROSCOPE 2011/12/27 2011/12/28 金沢大学
3408 99127582 I422622 台湾 Method for producing polymer material 2011/12/19 2015/09/29 科学技術振興機構(JST)
3409 94108329 I331233 台湾 Liquid crystal display device 2011/12/14 2011/12/14 科学技術振興機構(JST)
3410 94106027 I336134 台湾 Amorphous oxide and thin film transistor 実績あり 2011/12/14 2011/12/14 科学技術振興機構(JST)
3411 2011JP077660 WO 2012/081402 世界知的所有権機関(WIPO) LATERAL FACE INSTALLATION-TYPE FORCE SENSE DISPLAY INTERFACE 2011/12/13 2012/06/27 岐阜大学
3412 2008JP058743 WO 2008/140074 世界知的所有権機関(WIPO) METHOD FOR PRODUCTION OF OPTICALLY ACTIVE CARBOXYLIC ACID ESTER 2011/12/09 2011/12/28 東京理科大学
3413 99118267 I425275 台湾 A transmissive liquid crystal display device 2011/11/29 2015/09/29 科学技術振興機構(JST)
3414 2005JP020122 WO 2006/051726 世界知的所有権機関(WIPO) SENSOR PART AND BIOLOGICAL SENSOR 新技術説明会 2011/11/28 2011/12/02 九州大学
3415 2006SG000157 WO 2006/121414 世界知的所有権機関(WIPO) APPARATUS AND METHOD FOR DESALINATION 2011/11/28 2011/11/28 九州大学
3416 2006JP304154 WO 2006/126320 世界知的所有権機関(WIPO) COMMUNICATION CIRCUIT, COMMUNICATION APPARATUS, IMPEDANCE MATCHING CIRCUIT AND IMPEDANCE MATCHING CIRCUIT DESIGNING METHOD 2011/11/28 2011/12/02 九州大学
3417 2006JP304155 WO 2006/126321 世界知的所有権機関(WIPO) FILTER CHARACTERISTICS REGULATING METHOD, FILTER CHARACTERISTICS REGULATOR, FILTER, AND COMMUNICATION APPARATUS 2011/11/28 2011/12/02 九州大学
3418 2006JP320717 WO 2007/046403 世界知的所有権機関(WIPO) PLANT BELONGING TO GENUS ORYZA HAVING DOMINANT DWARF TRAIT, AND USE THEREOF 2011/11/28 2011/12/02 九州大学
3419 2009JP051348 WO 2009/096423 世界知的所有権機関(WIPO) NETWORK SYSTEM, NODE, PACKET FORWARDING METHOD, PROGRAM, AND RECORDING MEDIUM 2011/11/28 2011/12/02 九州大学
3420 2010JP071658 WO 2011/068191 世界知的所有権機関(WIPO) MANUFACTURING METHOD AND DEVICE FOR COMPOSITION IN WHICH DISPERSED PHASE IS FINELY DISPERSED INTO CONTINUOUS PHASE 新技術説明会 2011/11/28 2011/12/02 九州大学
3421 2010JP062225 WO 2011/010656 世界知的所有権機関(WIPO) ORGANIC ELECTROLUMINESCENT ELEMENT 2011/11/28 2011/12/02 九州大学
3422 2011JP050881 WO 2011/090079 世界知的所有権機関(WIPO) BISTABLE ELEMENT 2011/11/28 2011/12/02 九州大学
3423 2010JP061566 WO 2011/004852 世界知的所有権機関(WIPO) COMPOSITE SHAPED BODY, SILICA GLASS, AND PROCESSES FOR PRODUCTION OF SAME 2011/11/28 2011/12/02 九州大学
3424 2011JP053821 WO 2011/105360 世界知的所有権機関(WIPO) IDENTIFICATION DEVICE AND IDENTIFICATION METHOD 2011/11/28 2011/12/02 九州大学
3425 2011JP053845 WO 2011/105371 世界知的所有権機関(WIPO) COMMUNICATIONS SYSTEM, SLAVE NODE, ROUTE BUILDING METHOD, AND PROGRAM 2011/11/28 2011/12/02 九州大学
3426 2010JP004021 WO 2011/004552 世界知的所有権機関(WIPO) WATER-SOLUBLE DRUG CARRIER AND PROCESS FOR PRODUCTION THEREOF 2011/11/28 2011/12/02 九州大学
3427 2010JP069385 WO 2011/052759 世界知的所有権機関(WIPO) NOVEL NITROXYL RADICAL COMPOUND AND PROCESS FOR PRODUCTION THEREOF 2011/11/28 2011/12/02 九州大学
3428 2010JP069386 WO 2011/052760 世界知的所有権機関(WIPO) METHOD FOR DETECTING ENDOGENOUS BIOMOLECULE 2011/11/28 2011/12/02 九州大学
3429 2011JP051940 WO 2011/093497 世界知的所有権機関(WIPO) PLASMA OXIDATION-REDUCTION METHOD, METHOD FOR PROMOTING PLANT/ANIMAL GROWTH USING THE SAME, AND PLASMA GENERATING DEVICE FOR USE IN METHOD FOR PROMOTING PLANT/ANIMAL GROWTH 2011/11/28 2011/12/02 九州大学
3430 2011JP060581 WO 2011/138958 世界知的所有権機関(WIPO) PROCESS FOR PRODUCTION OF FUNCTIONAL DEVICE, PROCESS FOR PRODUCTION OF FERROELECTRIC MATERIAL LAYER, PROCESS FOR PRODUCTION OF FIELD EFFECT TRANSISTOR, THIN FILM TRANSISTOR, FIELD EFFECT TRANSISTOR, AND PIEZOELECTRIC INKJET HEAD 2011/11/16 2011/12/01 科学技術振興機構(JST)
3431 2010JP065070 WO 2011027839 世界知的所有権機関(WIPO) CHOLESTEROL-EFFLUX PEPTIDE 2011/11/09 2019/04/22 福岡大学
3432 2010JP063894 WO 2011/024677 世界知的所有権機関(WIPO) ELECTRODE MEMBER, ELECTRON ENERGY ANALYZER, PHOTOELECTRON ENERGY ANALYZER, AND TEMPERATURE MEASURING APPARATUS 2011/11/09 2011/12/01 横浜市立大学
3433 2010JP063822 WO 2011/021605 世界知的所有権機関(WIPO) OBJECT DETECTION METHOD 2011/11/09 2011/12/02 大阪府立大学
3434 2010JP065835 WO 2011/030904 世界知的所有権機関(WIPO) NI3(SI, TI) INTERMETALLIC COMPOUND TO WHICH W IS ADDED, AND METHOD FOR PRODUCING SAME 2011/11/09 2011/12/02 大阪府立大学
3435 2010JP065839 WO 2011/030905 世界知的所有権機関(WIPO) NI3(SI, TI) INTERMETALLIC COMPOUND TO WHICH TA IS ADDED 2011/11/09 2011/12/02 大阪府立大学
3436 2010JP066900 WO 2011/040434 世界知的所有権機関(WIPO) CYCLOPARA(HETERO)ARYLENE COMPOUND AND METHOD FOR PRODUCING SAME 実績あり 2011/11/09 2011/12/02 京都大学
3437 2010JP063529 WO 2011/019031 世界知的所有権機関(WIPO) METHOD AND REAGENT FOR GENE SEQUENCE ANALYSIS 2011/11/09 2011/12/01 群馬大学
3438 2010JP063566 WO 2011/019036 世界知的所有権機関(WIPO) METHOD FOR EXTRACTING A CHARGED PARTICLE BEAM USING PULSE VOLTAGE 2011/11/09 2011/12/01 群馬大学
3439 2010JP064908 WO 2011/030704 世界知的所有権機関(WIPO) CONTAINER FOR CRYSTALLIZATION, CRYSTALLIZATION APPARATUS, METHOD FOR PRODUCING CRYSTAL, AND SUBSTRATE FOR CRYSTALLIZATION 2011/11/09 2011/12/01 群馬大学
3440 2010JP065348 WO 2011/030766 世界知的所有権機関(WIPO) METHOD FOR PRODUCING STEREO COMPLEX CRYSTALS OF POLYLACTIC ACID, POLYLACTIC ACID, AND MOLDED BODY, SYNTHETIC FIBER, POROUS BODY AND ION CONDUCTOR COMPRISING SAME 2011/11/09 2011/12/01 群馬大学
3441 2010JP063967 WO 2011/027670 世界知的所有権機関(WIPO) METHOD FOR QUANTITATIVELY EVALUATING CONCENTRATION OF ATOMIC VACANCIES EXISTING IN SILICON WAFER, METHOD FOR MANUFACTURING SILICON WAFER, AND SILICON WAFER MANUFACTURED BY THE METHOD FOR MANUFACTURING SILICON WAFER 新技術説明会 2011/11/09 2011/12/01 新潟大学
3442 2010JP071485 WO 2011/068122 世界知的所有権機関(WIPO) METHOD FOR PRODUCING HYDROGEN BY MEANS OF HYDROTHERMAL DECOMPOSITION, AND DEVICE FOR PRODUCING HYDROGEN 新技術説明会 2011/11/09 2011/12/01 新潟大学
3443 2010JP064567 WO 2011/027718 世界知的所有権機関(WIPO) METHOD AND KIT FOR MEASURING ENZYMATIC ACTIVITIES OF VARIOUS CYTOCHROME P450 MOLECULE SPECIES COMPREHENSIVELY AND WITH HIGH EFFICIENCY 2011/11/09 2011/12/01 神戸大学
3444 2010JP066853 WO 2011/037263 世界知的所有権機関(WIPO) SOLVENT FOR ELECTROLYTIC SOLUTION, ELECTROLYTIC SOLUTION, AND GEL-LIKE ELECTROLYTE 2011/11/09 2011/12/02 静岡大学
3445 2010JP067452 WO 2011/043339 世界知的所有権機関(WIPO) SEMICONDUCTOR ELEMENT AND SOLID-STATE IMAGING DEVICE 2011/11/09 2011/12/02 静岡大学
3446 2010JP067672 WO 2011/043432 世界知的所有権機関(WIPO) SEMICONDUCTOR ELEMENT AND SOLID-STATE IMAGE PICKUP DEVICE 2011/11/09 2011/12/02 静岡大学
3447 2010JP067082 WO 2011/040526 世界知的所有権機関(WIPO) VIRUS CAPABLE OF EXPRESSING .alpha.-GALACTOSE EPITOPE, AND METHOD FOR PRODUCTION OF VACCINE 新技術説明会 2011/11/09 2011/12/02 帯広畜産大学
3448 2010JP067083 WO 2011/040527 世界知的所有権機関(WIPO) TRANSGENIC BIRD CAPABLE OF EXPRESSING .alpha.-GALACTOSE EPITOPE, VIRUS, AND VACCINE 新技術説明会 2011/11/09 2011/12/02 帯広畜産大学
3449 2010JP063345 WO 2011016540 世界知的所有権機関(WIPO) NOVEL UBIQUITIN LIGASE AND USE THEREOF 2011/11/09 2020/05/20 京都大学
3450 2010JP064792 WO 2011/025026 世界知的所有権機関(WIPO) STERILIZATION METHOD 2011/11/09 2011/12/01 東京工業大学
3451 2010JP005687 WO 2011/033784 世界知的所有権機関(WIPO) SIGNAL EXTRACTING APPARATUS 2011/11/09 2011/12/02 東北大学
3452 2010JP063793 WO 2011/021594 世界知的所有権機関(WIPO) SUSTAINED DRUG DELIVERY SYSTEM 新技術説明会 2011/11/09 2011/12/02 東北大学
3453 2010JP065991 WO 2011/030916 世界知的所有権機関(WIPO) PHASE CHANGE MATERIAL AND PHASE CHANGE MEMORY ELEMENT 2011/11/09 2011/12/02 東北大学
3454 2010JP064006 WO 2011/021666 世界知的所有権機関(WIPO) RECOMBINANT DNA MOLECULE ENCODING 5'UTR CAPABLE OF PREVENTING INHIBITION OF TRANSLATION UNDER ENVIRONMENTAL STRESSES 2011/11/09 2011/12/01 奈良先端科学技術大学院大学
3455 2010JP005862 WO 2011/040012 世界知的所有権機関(WIPO) TUNNEL FIELD EFFECT TRANSISTOR AND METHOD FOR MANUFACTURING SAME 新技術説明会 2011/11/09 2011/12/02 北海道大学
3456 2010JP065052 WO 2011/027830 世界知的所有権機関(WIPO) PHOTOELECTRIC CONVERSION DEVICE, LIGHT DETECTING DEVICE, AND LIGHT DETECTING METHOD 2011/11/09 2011/12/02 北海道大学
3457 2010JP065157 WO 2011/027864 世界知的所有権機関(WIPO) PHOTOREDUCTION CATALYST, METHOD FOR SYNTHESIZING AMMONIA USING SAME, AND METHOD FOR DECREASING NITROGEN OXIDE IN WATER USING SAME 2011/11/09 2011/12/02 北海道大学
3458 99111081 201109159 台湾 Pattern formation method, pattern, and device 2011/11/09 2011/11/09 科学技術振興機構(JST)
3459 99107197 I410373 台湾 Method for making an organic modified carbon nanotube 2011/11/09 2014/01/08 科学技術振興機構(JST)
3460 99105476 I402220 台湾 Activated metal salt flocculant and process for producing same 2011/11/09 2013/10/09 山口TLO
3461 2010JP065490 WO 2011/030814 世界知的所有権機関(WIPO) IMAGE PROCESSING DEVICE, IMAGE PROCESSING METHOD, AND PROGRAM 新技術説明会 2011/11/07 2011/12/01 鹿児島大学
3462 2010JP063620 WO 2011/019051 世界知的所有権機関(WIPO) WIRELESS RECEIVING DEVICE 新技術説明会 2011/11/07 2011/12/01 奈良先端科学技術大学院大学
3463 2010JP005343 WO 2011/024488 世界知的所有権機関(WIPO) PROCESS FOR PRODUCING COMPOSITE AND THE COMPOSITE 2011/11/04 2011/12/01 慶應義塾大学
3464 2010JP064257 WO 2011/024793 世界知的所有権機関(WIPO) pH OR CONCENTRATION MEASURING DEVICE AND pH OR CONCENTRATION MEASURING METHOD 2011/11/04 2011/12/02 岡山大学
3465 2010JP065173 WO 2011030724 世界知的所有権機関(WIPO) USE OF GENE INVOLVED IN ACCUMULATION OF CADMIUM IN PLANTS 2011/11/04 2019/04/24 岡山大学
3466 2010JP065426 WO 2011030793 世界知的所有権機関(WIPO) USE OF GENE INVOLVED IN TAKING-IN OF ALUMINUM INTO PLANTS 2011/11/04 2019/04/24 岡山大学
3467 2010JP066683 WO 2011/037227 世界知的所有権機関(WIPO) AGENT FOR PREVENTION OF ATHEROSCLEROSIS 2011/11/04 2011/12/02 岡山大学
3468 98127339 I487224 台湾 Two-dimensional photonic crystal laser 2011/11/02 2015/09/29 科学技術振興機構(JST)
3469 96147275 I533351 台湾 Metalorganic chemical vapor deposition (mocvd) growth of high performance non-polar iii-nitride optical devices 実績あり 2011/11/02 2016/07/29 科学技術振興機構(JST)
3470 09826039 2366785 欧州特許庁(EPO) OLIGONUCLEOTIDE DERIVATIVE, LABELING AGENT, AND USE OF THE LABELING AGENT 2011/10/27 2013/01/23 科学技術振興機構(JST)
3471 57143406 7892653 アメリカ合衆国 Titanium alloy composite material, titanium clad material using the titanium alloy composite material, and method of producing the titanium clad material 実績あり 2011/10/25 2018/07/18 長野県工業技術総合センター
3472 87216304 7022310 アメリカ合衆国 Stable isotope-labeled amino acid and method for incorporating same into target protein 実績あり 2011/10/21 2017/04/28 科学技術振興機構(JST)
3473 200913128360 8828679 アメリカ合衆国 Method and kit for detecting biological signal of three-dimensional cell culture material 2011/10/19 2018/07/20 科学技術振興機構(JST)
3474 2009139630 2446688 ロシア連邦 COMPOSITION FOR OBTAINING PLANT BODY HAVING IMPROVED SUGAR CONTENT AND USE THEREOF 実績あり 2011/10/19 2012/08/22 科学技術振興機構(JST)
3475 200913058647 8853424 アメリカ合衆国 Protein cross-linking inhibitor 2011/10/19 2018/07/20 科学技術振興機構(JST)
3476 200913062276 8248596 アメリカ合衆国 Cryostat 実績あり 2011/10/19 2018/07/20 科学技術振興機構(JST)
3477 200913061337 8300672 アメリカ合衆国 Two-dimensional photonic crystal laser 2011/10/19 2018/07/20 科学技術振興機構(JST)
3478 200913000836 8961949 アメリカ合衆国 Polymer-metal complex composite having MRI contrast ability and MRI contrasting and/or antitumor composition using the same 2011/10/19 2018/07/20 科学技術振興機構(JST)
3479 2011JP001664 WO 2011/125296 世界知的所有権機関(WIPO) DATA CONVERSION METHOD BASED ON SCALE-ADJUSTED .beta.-MAP 2011/10/19 2011/10/27 科学技術振興機構(JST)
3480 2011JP001666 WO 2011/125297 世界知的所有権機関(WIPO) DATA CONVERSION METHOD BASED ON NEGATIVE .beta.-MAP 2011/10/19 2011/10/27 科学技術振興機構(JST)
3481 2010JP006018 WO 2011048766 世界知的所有権機関(WIPO) CARBONIC ANHYDRASE I SERVING AS NOVEL ANTIGEN TO BE USED FOR TREATMENT OF AUTOIMMUNE DISEASES 2011/10/13 2019/04/22 四国TLO
3482 2010JP072163 WO 2011/121859 世界知的所有権機関(WIPO) DETECTION ELEMENT 2011/10/12 2011/10/27 科学技術振興機構(JST)
3483 2010JP001044 WO 2010/100847 世界知的所有権機関(WIPO) DEVICE FOR CRYSTALLIZING BIOPOLYMER, CELL OF SOLUTION FOR CRYSTALLIZING BIOPOLYMER, METHOD FOR CONTROLLING ALIGNMENT OF BIOPOLYMER, METHOD FOR CRYSTALLIZING BIOPOLYMER AND BIOPOLYMER CRYSTAL 2011/10/11 2011/10/27 茨城工業高等専門学校
3484 2008JP068441 WO 2010/041330 世界知的所有権機関(WIPO) FLUORINE INSOLUBILIZING AGENT, GYPSUM WITH ELUTION OF FLUORINE CONTAINED THEREIN BEING REDUCED, AND METHOD FOR TREATING SOIL CONTAMINATED WITH FLUIRINE 2011/10/11 2011/10/27 富山高等専門学校
3485 93487609 8852765 アメリカ合衆国 Microbial fuel cell 2011/10/05 2018/07/20 科学技術振興機構(JST)
3486 200980109469 102204002 中華人民共和国 MICROBIAL FUEL CELL 2011/10/05 2015/09/28 科学技術振興機構(JST)
3487 2011JP054550 WO 2011/108503 世界知的所有権機関(WIPO) METHOD FOR DETACHING CULTURED CELLS, CELL DETACHMENT DEVICE USED IN SAID METHOD FOR DETACHING CULTURED CELLS, AND INCUBATOR 2011/09/22 2011/09/29 科学技術振興機構(JST)
3488 2011JP053199 WO 2011/111482 世界知的所有権機関(WIPO) GOLD POLYMER NANO-STRUCTURE-SUPPORTED SCANDIUM CATALYST AND USE OF THE SAME 2011/09/22 2011/09/29 科学技術振興機構(JST)
3489 2011JP052731 WO 2011/111460 世界知的所有権機関(WIPO) POLYMER SUPPORTED BORON CATALYST AND METHOD FOR PRODUCING MICHAEL ADDITION REACTION PRODUCT USING THAT CATALYST 2011/09/22 2011/09/29 科学技術振興機構(JST)
3490 2011JP055114 WO 2011/108721 世界知的所有権機関(WIPO) ELECTRET, ELECTROSTATIC-INDUCTION TYPE CONVERSION ELEMENT, AND METHOD OF CHARGING ELECTRET 2011/09/22 2011/09/29 科学技術振興機構(JST)
3491 2728960 2728960 カナダ Polymer-metal complex composite having mri contrast ability and mri contrasting and/or antitumor composition using the same 2011/09/20 2016/05/10 科学技術振興機構(JST)
3492 09823714 2351825 欧州特許庁(EPO) Three-dimensional object manufactured by stereolithography and to which cytocompatibility process is applied 2011/09/20 2017/05/17 科学技術振興機構(JST)
3493 58633105 8039247 アメリカ合衆国 Method of forming planar lipid double membrane for membrane protein analysis and apparatus therefor 2011/09/20 2019/01/30 科学技術振興機構(JST)
3494 59403205 7969463 アメリカ合衆国 Three-dimensional display 2011/09/20 2018/07/20 科学技術振興機構(JST)
3495 2011JP050616 WO 2011083881 世界知的所有権機関(WIPO) VACCINE FOR TREATMENT OF TAUTOPATHY 2011/09/15 2019/04/24 京都大学
3496 56751404 7480595 アメリカ合衆国 System estimation method and program, recording medium, and system estimation device 新技術説明会 実績あり 2011/09/14 2018/07/20 科学技術振興機構(JST)
3497 58493204 7352504 アメリカ合衆国 Optical fourier transform device and method 2011/09/14 2018/07/20 科学技術振興機構(JST)
3498 59378305 8741192 アメリカ合衆国 Method and device for producing micro-droplets 実績あり 2011/09/14 2018/07/20 科学技術振興機構(JST)
3499 59947905 7829526 アメリカ合衆国 Cardioinhibitory/antihypertensive novel endogenous physiologically active peptide 2011/09/14 2018/07/20 科学技術振興機構(JST)
3500 05924802 06669807 アメリカ合衆国 Method for reactive ion etching and apparatus therefor 実績あり 2011/09/14 2011/09/14 科学技術振興機構(JST)

PAGE TOP